Location: Ethel Rock
(53.4667°N, 4.5667°W)
Time: 04:49:14
(UTC+00:00)

NOSS 3-2 (A) - Pass Details

Date: 24 October 2020
Orbit: 792 x 1416 km, 63.4° (Epoch: 22 November)

Event Time Altitude Azimuth Distance (km) Brightness Sun altitude
Exits shadow 03:51:41 33° 163° (SSE) 1,477 4.4 -28.7°
Maximum altitude 03:53:34 42° 121° (ESE) 1,300 4.3 -28.4°
Drops below altitude 10° 03:59:41 10° 53° (NE) 2,842 6.8 -27.6°
Sets 04:02:38 0° 48° (NE) 3,902 7.6 -27.2°
